DL2GFH-3 Weather Reports


Display with metric or nautical units.
time (UTC)temp
F
wind
direction
speed
MPH
gust
MPH
rain 1hr
in
rain 24hr
in
rain mn
in
humidity
%
barometer
mb
20260506180739 64 0 0.0 0.0 0.00 0.00 0.00 40 1009.8
20260506175233 64 0 0.0 0.0 0.00 0.00 0.00 40 1009.7
20260506173728 64 0 0.0 0.0 0.00 0.00 0.00 40 1009.6
20260506172222 65 0 0.0 0.0 0.00 0.00 0.00 40 1009.5
20260506170717 65 0 0.0 0.0 0.00 0.00 0.00 40 1009.2
20260506165211 65 0 0.0 0.0 0.00 0.00 0.00 40 1009.1
20260506163706 65 0 0.0 0.0 0.00 0.00 0.00 40 1008.9
20260506162201 65 0 0.0 0.0 0.00 0.00 0.00 39 1009.0
20260506160655 65 0 0.0 0.0 0.00 0.00 0.00 39 1009.1
20260506155150 66 0 0.0 0.0 0.00 0.00 0.00 39 1009.1
20260506153644 66 0 0.0 0.0 0.00 0.00 0.00 39 1009.1
20260506152139 66 0 0.0 0.0 0.00 0.00 0.00 39 1009.1
20260506150634 66 0 0.0 0.0 0.00 0.00 0.00 39 1008.9
20260506145128 66 0 0.0 0.0 0.00 0.00 0.00 39 1008.8
20260506143623 66 0 0.0 0.0 0.00 0.00 0.00 38 1008.8
20260506142117 67 0 0.0 0.0 0.00 0.00 0.00 38 1008.8
20260506140612 67 0 0.0 0.0 0.00 0.00 0.00 38 1008.7
20260506135106 67 0 0.0 0.0 0.00 0.00 0.00 37 1008.4
20260506133601 68 0 0.0 0.0 0.00 0.00 0.00 36 1008.2
20260506132056 68 0 0.0 0.0 0.00 0.00 0.00 35 1007.9
20260506130550 69 0 0.0 0.0 0.00 0.00 0.00 35 1007.7
20260506125045 70 0 0.0 0.0 0.00 0.00 0.00 34 1007.4
20260506123539 71 0 0.0 0.0 0.00 0.00 0.00 33 1007.3
20260506122034 71 0 0.0 0.0 0.00 0.00 0.00 32 1007.1
20260506120529 72 0 0.0 0.0 0.00 0.00 0.00 32 1007.0
20260506115023 71 0 0.0 0.0 0.00 0.00 0.00 32 1006.9
20260506112012 70 0 0.0 0.0 0.00 0.00 0.00 34 1007.0
20260506110507 70 0 0.0 0.0 0.00 0.00 0.00 34 1007.0
20260506105001 69 0 0.0 0.0 0.00 0.00 0.00 34 1007.1
20260506101951 69 0 0.0 0.0 0.00 0.00 0.00 35 1007.4
20260506100445 68 0 0.0 0.0 0.00 0.00 0.00 35 1007.5
20260506094940 69 0 0.0 0.0 0.00 0.00 0.00 34 1007.3
20260506093434 69 0 0.0 0.0 0.00 0.00 0.00 33 1007.3
20260506091929 70 0 0.0 0.0 0.00 0.00 0.00 32 1007.3
20260506090424 71 0 0.0 0.0 0.00 0.00 0.00 32 1007.3
20260506084918 72 0 0.0 0.0 0.00 0.00 0.00 31 1007.2
20260506083413 72 0 0.0 0.0 0.00 0.00 0.00 31 1007.1
20260506081907 73 0 0.0 0.0 0.00 0.00 0.00 30 1006.9
20260506080402 73 0 0.0 0.0 0.00 0.00 0.00 30 1007.1
20260506073351 75 0 0.0 0.0 0.00 0.00 0.00 29 1007.1
20260506071846 72 0 0.0 0.0 0.00 0.00 0.00 31 1007.2
20260506070340 72 0 0.0 0.0 0.00 0.00 0.00 31 1007.2
20260506061824 63 0 0.0 0.0 0.00 0.00 0.00 39 1007.3
20260506060319 63 0 0.0 0.0 0.00 0.00 0.00 39 1007.4
20260506050257 63 0 0.0 0.0 0.00 0.00 0.00 40 1007.7
20260506044751 63 0 0.0 0.0 0.00 0.00 0.00 39 1007.5
20260506043246 64 0 0.0 0.0 0.00 0.00 0.00 39 1007.7
20260506041741 65 0 0.0 0.0 0.00 0.00 0.00 38 1007.9
20260506040235 66 0 0.0 0.0 0.00 0.00 0.00 36 1007.9
20260506034730 68 0 0.0 0.0 0.00 0.00 0.00 35 1008.0
20260506033224 70 0 0.0 0.0 0.00 0.00 0.00 33 1008.0
20260506031719 72 0 0.0 0.0 0.00 0.00 0.00 31 1008.0
20260506030214 62 0 0.0 0.0 0.00 0.00 0.00 41 1008.3
20260506024708 62 0 0.0 0.0 0.00 0.00 0.00 41 1008.7
20260506023203 62 0 0.0 0.0 0.00 0.00 0.00 41 1008.6
20260506021657 63 0 0.0 0.0 0.00 0.00 0.00 41 1008.8
20260506020152 63 0 0.0 0.0 0.00 0.00 0.00 41 1008.9
20260506014647 63 0 0.0 0.0 0.00 0.00 0.00 41 1008.9
20260506013141 63 0 0.0 0.0 0.00 0.00 0.00 41 1008.9
20260506011636 63 0 0.0 0.0 0.00 0.00 0.00 41 1008.9
20260506010130 63 0 0.0 0.0 0.00 0.00 0.00 41 1009.3
20260506004625 63 0 0.0 0.0 0.00 0.00 0.00 41 1009.4
20260506003119 64 0 0.0 0.0 0.00 0.00 0.00 41 1009.4
20260506001614 64 0 0.0 0.0 0.00 0.00 0.00 41 1009.3
20260506000109 64 0 0.0 0.0 0.00 0.00 0.00 41 1009.2
20260505234603 64 0 0.0 0.0 0.00 0.00 0.00 41 1009.5
20260505233058 64 0 0.0 0.0 0.00 0.00 0.00 41 1009.7
20260505231552 64 0 0.0 0.0 0.00 0.00 0.00 41 1009.7
20260505230047 64 0 0.0 0.0 0.00 0.00 0.00 41 1009.9
20260505224542 64 0 0.0 0.0 0.00 0.00 0.00 41 1009.9
20260505223036 64 0 0.0 0.0 0.00 0.00 0.00 41 1009.9
20260505221531 64 0 0.0 0.0 0.00 0.00 0.00 41 1010.0
20260505220025 64 0 0.0 0.0 0.00 0.00 0.00 41 1010.1
20260505214520 65 0 0.0 0.0 0.00 0.00 0.00 41 1010.2
20260505213014 65 0 0.0 0.0 0.00 0.00 0.00 41 1010.2
20260505211509 65 0 0.0 0.0 0.00 0.00 0.00 41 1010.2
20260505204458 65 0 0.0 0.0 0.00 0.00 0.00 41 1010.2
20260505202953 65 0 0.0 0.0 0.00 0.00 0.00 41 1010.2
20260505201447 66 0 0.0 0.0 0.00 0.00 0.00 40 1010.1
20260505195942 66 0 0.0 0.0 0.00 0.00 0.00 40 1010.1
20260505194437 66 0 0.0 0.0 0.00 0.00 0.00 40 1009.8
20260505192931 66 0 0.0 0.0 0.00 0.00 0.00 40 1009.6
20260505191426 66 0 0.0 0.0 0.00 0.00 0.00 40 1009.5
20260505185920 66 0 0.0 0.0 0.00 0.00 0.00 40 1009.4
20260505184415 67 0 0.0 0.0 0.00 0.00 0.00 40 1009.5
20260505182909 67 0 0.0 0.0 0.00 0.00 0.00 39 1009.4